Selinsgrove, PA

4:10 PM EST on November 15, 2019 (GMT -0500)
Penn Valley

Weather History for KSEG - August, 2019

Change the Weather History Date:

Tuesday, August 27, 2019

  Actual Average (KIPT) Record (KIPT)
Temperature  
Mean Temperature 64 °F -  
Max Temperature 70 °F 77 °F 98 °F (1948)
Min Temperature 59 °F 57 °F 41 °F (1944)
Growing Degree Days 14 (Base 50)    
Moisture  
Dew Point 61 °F    
Average Humidity 87    
Maximum Humidity 97    
Minimum Humidity 78    
Precipitation  
Precipitation 0.10 in - - ()
Sea Level Pressure  
Sea Level Pressure 30.04 in    
Wind  
Wind Speed 2 mph (SSE)    
Max Wind Speed 6 mph    
Max Gust Speed -    
Visibility 9 miles    
Events Rain    
Averages and records for this station are not official NWS values.
T = Trace of Precipitation, MM = Missing Value Source: NWS Daily Summary

Daily Weather History Graph

Daily Weather History Graph

Search for Another Location

Airport or City:

Astronomy

Aug. 27, 2019 Rise Set
Actual Time 6:29 AM EDT 7:48 PM EDT
Civil Twilight 6:00 AM EDT 8:16 PM EDT
Nautical Twilight 5:26 AM EDT 8:50 PM EDT
Astronomical Twilight 4:50 AM EDT 9:26 PM EDT
Moon 2:50 AM EDT (8/27) 6:08 PM EDT (8/27)
Length of Visible Light 14h 15m
Length of Day
13h 18m
Waning Crescent, 11% of the Moon is Illuminated
Aug 27
Waning Crescent
Aug 30
New
Sep 5
First Quarter
Sep 14
Full
Sep 21
Last Quarter

Hourly Weather History & Observations

Time (EDT) Temp. Dew Point Humidity Pressure Visibility Wind Dir Wind Speed Gust Speed Precip Events Conditions
12:53 AM 63.0 °F 57.0 °F 81% 30.12 in 10.0 mi Variable 3.5 mph - N/A   Clear
1:53 AM 59.0 °F 57.0 °F 93% 30.11 in 10.0 mi Calm Calm - N/A   Partly Cloudy
2:53 AM 62.1 °F 57.0 °F 84% 30.09 in 10.0 mi South 3.5 mph - N/A   Clear
3:53 AM 60.1 °F 57.0 °F 90% 30.07 in 10.0 mi Calm Calm - N/A   Clear
4:53 AM 60.1 °F 57.9 °F 93% 30.07 in 10.0 mi Calm Calm - N/A   Overcast
5:53 AM 60.1 °F 59.0 °F 96% 30.07 in 10.0 mi Calm Calm - N/A   Overcast
6:53 AM 61.0 °F 59.0 °F 93% 30.08 in 10.0 mi Calm Calm - N/A   Overcast
7:53 AM 61.0 °F 60.1 °F 97% 30.08 in 6.0 mi Calm Calm - 0.02 in Rain Light Rain
8:07 AM 62.1 °F 60.1 °F 93% 30.09 in 7.0 mi Calm Calm - 0.00 in Rain Light Rain
8:38 AM 63.0 °F 60.1 °F 90% 30.09 in 6.0 mi Calm Calm - 0.00 in Rain Light Rain
8:53 AM 62.1 °F 59.0 °F 90% 30.09 in 10.0 mi Calm Calm - 0.00 in   Overcast
9:39 AM 63.0 °F 60.1 °F 90% 30.09 in 3.0 mi Calm Calm - 0.02 in Rain Light Rain
9:53 AM 63.0 °F 60.1 °F 90% 30.09 in 2.5 mi SSE 3.5 mph - 0.04 in Rain Light Rain
9:58 AM 63.0 °F 61.0 °F 93% 30.09 in 3.0 mi SSE 4.6 mph - 0.00 in Rain Light Rain
10:07 AM 63.0 °F 61.0 °F 93% 30.09 in 4.0 mi SSE 3.5 mph - 0.00 in Rain Light Rain
10:53 AM 64.0 °F 60.1 °F 87% 30.08 in 10.0 mi Calm Calm - 0.01 in   Overcast
11:53 AM 64.0 °F 61.0 °F 90% 30.06 in 6.0 mi SSE 3.5 mph - 0.02 in Rain Light Rain
12:28 PM 66.0 °F 62.1 °F 87% 30.05 in 10.0 mi SE 3.5 mph - 0.01 in   Overcast
12:53 PM 66.9 °F 61.0 °F 81% 30.04 in 10.0 mi Variable 5.8 mph - 0.01 in   Overcast
1:03 PM 66.9 °F 62.1 °F 84% 30.04 in 8.0 mi SSE 3.5 mph - N/A   Overcast
1:53 PM 68.0 °F 62.1 °F 81% 30.03 in 10.0 mi Variable 4.6 mph - 0.00 in   Overcast
2:53 PM 68.0 °F 61.0 °F 78% 30.02 in 10.0 mi SSW 4.6 mph - N/A   Overcast
3:53 PM 69.1 °F 63.0 °F 81% 30.00 in 10.0 mi Variable 4.6 mph - N/A   Overcast
4:29 PM 69.1 °F 63.0 °F 81% 29.99 in 10.0 mi South 4.6 mph - N/A   Overcast
4:53 PM 70.0 °F 63.0 °F 78% 29.98 in 10.0 mi Variable 4.6 mph - N/A   Overcast
5:07 PM 70.0 °F 63.0 °F 78% 29.99 in 10.0 mi Variable 5.8 mph - N/A   Overcast
5:53 PM 70.0 °F 63.0 °F 78% 29.98 in 10.0 mi SSE 3.5 mph - N/A   Overcast
6:32 PM 70.0 °F 64.0 °F 81% 29.98 in 10.0 mi Calm Calm - N/A   Overcast
6:53 PM 70.0 °F 64.9 °F 84% 29.98 in 10.0 mi Calm Calm - N/A   Overcast
7:06 PM 69.1 °F 64.9 °F 87% 29.97 in 10.0 mi Calm Calm - N/A   Overcast
7:53 PM 68.0 °F 64.9 °F 90% 29.98 in 10.0 mi Calm Calm - N/A   Overcast
8:53 PM 66.9 °F 64.9 °F 93% 29.98 in 10.0 mi Calm Calm - N/A   Overcast
9:53 PM 66.9 °F 64.9 °F 93% 29.98 in 10.0 mi Calm Calm - N/A   Overcast
11:53 PM 66.0 °F 64.9 °F 96% 29.97 in 8.0 mi Calm Calm - N/A   Overcast